OROVILLE DAM (ORO)

Elevation: 900' · FEATHER R basin · Operator: CA Dept of Water Resources/O & M

Provisional data, subject to change.
Query executed Wednesday at 9:24:17   clock

Select a sensor type for a plot of data.
Note: Reservoir Flows are daily averages.

Earlier

Date RES ELE    STORAGE    RES CHG    TOC STO    ABV TOC    OUTFLOW    INFLOW    EVAP    FNF    PPT INC    RAIN    PPTINC4   
 FEET   AF   AF   AF   AF   CFS   CFS   CFS   CFS   INCHES   INCHES   INCHES  
07/21/2014 708.76 1322710 -4673 3538000 -2215290 3323 1121 114 976 e 0.00 18.84 0.00
07/22/2014 708.01 1316786 -5924 3538000 -2221214 3980 1061 68 976 e 0.00 18.84 0.00
07/23/2014 707.50 1312768 -4018 3538000 -2225232 3405 1365 65 959 0.00 18.84 0.00
07/24/2014 706.29 1303268 -9500 3538000 -2234732 6243 1510 96 912 0.00 18.84 0.00
07/25/2014 704.83 1291868 -11400 3538000 -2246132 6764 1120 103 912 e 0.00 18.84 0.00
07/26/2014 703.96 1285106 -6762 3538000 -2252894 4939 1640 109 912 e 0.00 18.84 0.00
07/27/2014 702.63 1274816 -10290 3538000 -2263184 6315 1268 102 990 e 0.00 18.84 0.00
07/28/2014 701.83 1268653 -6163 3538000 -2269347 4571 1569 144 990 e 0.00 18.84 0.00
07/29/2014 701.34 1264888 -3765 3538000 -2273112 3462 1663 99 1151 0.00 18.84 0.00
07/30/2014 700.46 1258145 -6743 3538000 -2279855 4595 1352 117 1020 0.00 18.84 0.00
07/31/2014 699.74 1252662 -5483 3538000 -2285338 4393 1690 105 1171 e 0.00 18.84 0.00
08/01/2014 699.06 1247482 -5180 3538000 -2290518 4294 1800 116 1171 e 0.00 18.84 0.00
08/02/2014 698.25 1241331 -6151 3538000 -2296669 3939 963 125 992 e 0.00 18.84 0.00
08/03/2014 697.52 1235807 -5524 3538000 -2302193 4185 1517 116 927 e 0.00 18.84 0.00
08/04/2014 696.74 1229923 -5884 3538000 -2308077 4234 1357 88 727 0.00 18.84 0.00
08/05/2014 695.60 1221360 -8562 3538000 -2316640 4324 49 41 993 e 0.20 19.04 0.16
08/06/2014 694.80 1215377 -5984 3538000 -2322623 4327 1333 22 1020 e 0.00 19.04 0.04
08/07/2014 694.08 1210010 -5367 3538000 -2327990 4251 1553 45 1116 0.00 19.04 0.00
08/08/2014 693.53 1205922 -4088 3538000 -2332078 4156 2245 75 1020 e 0.00 19.04 0.00
08/09/2014 692.62 1199179 -6743 3538000 -2338821 4174 777 77 1020 e 0.00 19.04 0.00
08/10/2014 691.85 1193494 -5684 3538000 -2344506 3823 1061 67 1020 e 0.00 19.04 0.00
08/11/2014 691.20 1188711 -4784 3538000 -2349289 3665 1365 112 1026 0.24 19.28 0.00
08/12/2014 690.62 1184454 -4257 3538000 -2353546 3488 1358 52 629 0.00 19.28 0.24
08/13/2014 689.92 1179331 -5123 3538000 -2358669 3460 926 85 956 0.00 19.28 0.00
08/14/2014 689.18 1173933 -5398 3538000 -2364067 3464 813 71 985 0.00 19.28 0.00
08/15/2014 688.32 1167681 -6252 3538000 -2370319 3251 157 94 701 0.00 19.28 0.00
08/16/2014 687.51 1161814 -5867 3538000 -2376186 3216 389 94 767 0.00 19.28 0.00
08/17/2014 686.66 1155680 -6134 3538000 -2382320 3174 140 94 543 0.00 19.28 0.00
08/18/2014 685.82 1149641 -6039 3538000 -2388359 3154 287 104 -- 0.00 19.28 0.00
08/19/2014 685.02 1143910 -5731 3538000 -2394090 3061 224 88 -- 0.00 19.28 0.00
08/20/2014 -- -- -- -- -- -- -- -- -- -- -- 0.00

Later | Latest

Warning! This data is preliminary and subject to revision.

Download Data Now Download Data Now | Show ORO Map | Plot ORO Data | 1 Month ORO Data | Real-Time ORO Data | ORO Info